sat.trackr.live / text

‹ back to catalog

STARLINK-6361

NORAD 57379 · 2023-099BD

PAYLOAD ACTIVE UNKNOWN

§ Identity

Operator
Country
US
Launch date
2023-07-16
Launch site
AFETR
Launch vehicle
Mass (kg)
RCS (m²)

Purposes: comms

External: N2YO · Heavens-Above · Gunter

§ Orbital elements

Epoch: 2026-09-20T03:59:15.858528Z

Period
94.27 min
Inclination
43.0009°
Eccentricity
0.0000967
Mean motion
15.27574002 rev/d
Perigee alt
482.4 km
Apogee alt
483.7 km
Semi-major
6,861.2 km
B*
2.5098e-5
RAAN
219.8227°
Arg perigee
261.3237°
Mean anomaly
98.7505°
Rev number
17,598

§ Raw data

STARLINK-63611 57379U 23099BD  26263.16615577  .00000429  00000+0  25098-4 0  99932 57379  43.0009 219.8227 0000967 261.3237  98.7505 15.27574002175983

JSON: /api/v1/satellites/57379 · /tle

For live sub-satellite position, see the globe view (requires WebGL).

§ Visibility from observer

Set your observer location to see the next 7 days of passes ≥ 10°. The values pass through the URL so the page stays shareable.

No JS? Fill the form by hand. The geolocation button needs JavaScript.